TimeEST,TemperatureF,Dew PointF,Humidity,Sea Level PressureIn,VisibilityMPH,Wind Direction,Wind SpeedMPH,Gust SpeedMPH,PrecipitationIn,Events,Conditions,WindDirDegrees,DateUTC
12:53 AM,28.0,21.9,78,30.26,10.0,ENE,8.1,-,N/A,,Overcast,70,2013-12-14 05:53:00
1:02 AM,28.4,23.0,80,30.23,7.0,ENE,9.2,-,0.00,Snow,Light Snow,70,2013-12-14 06:02:00
1:10 AM,26.6,23.0,86,30.23,1.8,ENE,8.1,-,0.00,Snow,Light Snow,60,2013-12-14 06:10:00
1:18 AM,26.6,23.0,86,30.23,1.0,NE,8.1,-,0.00,Snow,Light Snow,50,2013-12-14 06:18:00
1:53 AM,26.1,23.0,88,30.24,1.2,NE,9.2,-,0.01,Snow,Light Snow,50,2013-12-14 06:53:00
2:09 AM,26.6,21.2,80,30.21,1.5,NE,10.4,-,0.00,Snow,Light Snow,40,2013-12-14 07:09:00
2:20 AM,26.6,21.2,80,30.21,2.0,NE,9.2,-,0.00,Snow,Light Snow,50,2013-12-14 07:20:00
2:24 AM,26.6,21.2,80,30.21,1.8,NE,9.2,-,0.00,Snow,Light Snow,50,2013-12-14 07:24:00
2:42 AM,26.6,21.2,80,30.22,1.5,Variable,6.9,-,0.01,Snow,Light Snow,0,2013-12-14 07:42:00
2:53 AM,26.1,21.9,84,30.24,1.2,NE,6.9,-,0.01,Snow,Light Snow,50,2013-12-14 07:53:00
3:02 AM,24.8,21.2,86,30.22,1.0,NE,6.9,-,0.00,Snow,Light Snow,50,2013-12-14 08:02:00
3:13 AM,24.8,21.2,86,30.21,0.8,NE,5.8,-,0.00,Snow,Light Snow,50,2013-12-14 08:13:00
3:22 AM,24.8,21.2,86,30.21,1.0,NE,6.9,-,0.01,Snow,Light Snow,40,2013-12-14 08:22:00
3:28 AM,24.8,21.2,86,30.21,1.2,NE,5.8,-,0.01,Snow,Light Snow,40,2013-12-14 08:28:00
3:36 AM,24.8,21.2,86,30.20,1.8,NE,8.1,-,0.01,Snow,Light Snow,40,2013-12-14 08:36:00
3:53 AM,25.0,21.9,88,30.21,1.2,NE,8.1,-,0.02,Snow,Light Snow,40,2013-12-14 08:53:00
4:06 AM,26.6,21.2,80,30.18,1.5,NE,8.1,-,0.00,Snow,Light Snow,40,2013-12-14 09:06:00
4:53 AM,26.1,24.1,92,30.19,1.8,NE,6.9,-,0.00,Snow,Light Snow,50,2013-12-14 09:53:00
5:26 AM,26.6,24.8,93,30.14,0.8,NE,6.9,-,0.02,Snow,Light Snow,40,2013-12-14 10:26:00
5:38 AM,26.6,24.8,93,30.15,1.0,NE,5.8,-,0.02,Snow,Light Snow,50,2013-12-14 10:38:00
5:48 AM,26.6,24.8,93,30.15,1.2,ENE,5.8,-,0.03,Snow,Light Snow,60,2013-12-14 10:48:00
5:49 AM,27.0,24.1,89,30.17,1.2,ENE,5.8,-,0.03,Snow,Light Snow,60,2013-12-14 10:49:00
6:22 AM,26.6,24.8,93,30.15,2.5,East,5.8,-,0.00,Snow,Light Snow,80,2013-12-14 11:22:00
6:34 AM,28.4,24.8,86,30.15,2.5,ENE,5.8,-,0.00,Snow,Light Snow,70,2013-12-14 11:34:00
6:50 AM,28.4,24.8,86,30.14,1.8,ENE,6.9,-,0.01,Snow,Light Snow,70,2013-12-14 11:50:00
6:53 AM,28.0,25.0,88,30.17,1.8,ENE,6.9,-,0.01,Snow,Light Snow,70,2013-12-14 11:53:00
7:00 AM,28.4,24.8,86,30.14,2.0,ENE,8.1,-,0.00,Snow,Light Snow,60,2013-12-14 12:00:00
7:30 AM,28.4,24.8,86,30.12,1.8,ENE,9.2,-,0.00,Snow,Light Snow,60,2013-12-14 12:30:00
7:53 AM,28.0,25.0,88,30.14,1.8,ENE,9.2,-,0.01,Snow,Light Snow,60,2013-12-14 12:53:00
8:12 AM,28.4,26.6,93,30.12,1.5,ENE,8.1,-,0.00,Snow,Light Snow,70,2013-12-14 13:12:00
8:49 AM,28.4,26.6,93,30.11,0.8,East,10.4,-,0.00,Snow,Light Snow,80,2013-12-14 13:49:00
8:53 AM,28.9,26.1,89,30.13,0.5,East,9.2,-,0.01,Fog-Snow,Light Snow,80,2013-12-14 13:53:00
9:43 AM,30.2,26.6,86,30.09,0.5,ENE,8.1,-,0.02,Fog-Snow,Snow,70,2013-12-14 14:43:00
9:53 AM,30.0,27.0,88,30.10,0.5,ENE,9.2,-,0.02,Fog-Snow,Snow,70,2013-12-14 14:53:00
10:05 AM,30.2,26.6,86,30.07,0.2,ENE,10.4,18.4,0.01,Fog-Snow,Snow,60,2013-12-14 15:05:00
10:33 AM,30.2,28.4,93,30.05,1.2,ENE,10.4,-,0.01,Snow,Light Snow,60,2013-12-14 15:33:00
10:53 AM,30.9,28.0,89,30.07,2.0,ENE,11.5,-,0.02,Snow,Light Snow,70,2013-12-14 15:53:00
10:58 AM,30.2,26.6,86,30.04,1.0,ENE,10.4,-,0.00,Snow,Light Snow,70,2013-12-14 15:58:00
11:07 AM,30.2,28.4,93,30.03,0.5,ENE,10.4,-,0.00,Fog-Snow,Light Snow,70,2013-12-14 16:07:00
11:53 AM,30.9,28.0,89,30.01,0.5,ENE,10.4,-,0.02,Fog-Snow,Snow,60,2013-12-14 16:53:00
12:25 PM,30.2,28.4,93,29.95,0.5,ENE,11.5,-,0.03,Fog-Snow,Snow,60,2013-12-14 17:25:00
12:53 PM,30.9,28.0,89,29.96,0.5,ENE,12.7,-,0.04,Fog-Snow,Snow,60,2013-12-14 17:53:00
1:53 PM,30.9,28.0,89,29.90,0.2,ENE,11.5,-,0.04,Fog-Snow,Snow,60,2013-12-14 18:53:00
2:53 PM,30.9,28.0,89,29.85,0.8,NE,11.5,20.7,0.02,Snow,Light Snow,50,2013-12-14 19:53:00
3:53 PM,32.0,28.9,88,29.85,0.5,NE,12.7,-,0.04,Fog-Snow,Snow,50,2013-12-14 20:53:00
4:19 PM,30.2,26.6,86,29.82,0.5,NNE,8.1,-,0.02,Fog-Snow,Snow,20,2013-12-14 21:19:00
4:34 PM,28.4,26.6,93,29.82,1.2,NNE,10.4,17.3,0.02,Snow,Light Snow,20,2013-12-14 21:34:00
4:53 PM,27.0,24.1,89,29.83,1.5,NNE,11.5,-,0.02,Snow,Light Snow,30,2013-12-14 21:53:00
5:05 PM,26.6,23.0,86,29.81,0.8,NNE,10.4,20.7,0.01,Snow,Light Snow,30,2013-12-14 22:05:00
5:12 PM,26.6,21.2,80,29.80,1.2,NNE,11.5,20.7,0.01,Snow,Light Snow,30,2013-12-14 22:12:00
5:40 PM,24.8,21.2,86,29.80,1.0,NNE,12.7,20.7,0.01,Snow,Light Snow,30,2013-12-14 22:40:00
5:53 PM,25.0,21.0,85,29.82,1.2,NNE,15.0,23.0,0.01,Snow,Light Snow,30,2013-12-14 22:53:00
6:21 PM,24.8,21.2,86,29.80,1.2,NNE,11.5,20.7,0.01,Snow,Light Snow,30,2013-12-14 23:21:00
6:53 PM,25.0,21.0,85,29.81,1.0,NNE,16.1,-,0.02,Snow,Light Snow,30,2013-12-14 23:53:00
7:12 PM,24.8,21.2,86,29.78,1.2,NNE,15.0,23.0,0.00,Snow,Light Snow,30,2013-12-15 00:12:00
7:53 PM,24.1,21.0,88,29.81,2.0,NNE,13.8,23.0,0.00,Snow,Light Snow,20,2013-12-15 00:53:00
8:03 PM,24.8,21.2,86,29.78,5.0,NNE,13.8,19.6,0.00,Snow,Light Snow,20,2013-12-15 01:03:00
8:28 PM,24.8,19.4,80,29.79,6.0,NNE,12.7,20.7,0.00,,Overcast,20,2013-12-15 01:28:00
8:51 PM,24.8,19.4,80,29.78,4.0,NNE,11.5,18.4,0.00,Snow,Light Snow,20,2013-12-15 01:51:00
8:53 PM,24.1,19.9,84,29.81,3.0,North,12.7,-,0.00,Snow,Light Snow,10,2013-12-15 01:53:00
9:01 PM,24.8,19.4,80,29.79,2.5,North,10.4,-,0.00,Snow,Light Snow,360,2013-12-15 02:01:00
9:33 PM,21.2,19.4,93,29.78,1.8,North,11.5,-,0.00,Snow,Light Snow,350,2013-12-15 02:33:00
9:48 PM,21.2,17.6,86,29.78,2.0,North,10.4,-,0.00,Snow,Light Snow,350,2013-12-15 02:48:00
9:49 PM,21.9,18.0,85,29.81,2.0,North,10.4,-,0.00,Snow,Light Snow,350,2013-12-15 02:49:00
9:55 PM,21.2,17.6,86,29.79,1.8,NNW,12.7,-,0.00,Snow,Light Snow,340,2013-12-15 02:55:00
10:08 PM,21.2,17.6,86,29.78,2.5,NNW,10.4,-,0.00,Snow,Light Snow,340,2013-12-15 03:08:00
10:10 PM,21.2,17.6,86,29.78,3.0,North,11.5,-,0.00,Snow,Light Snow,350,2013-12-15 03:10:00
10:19 PM,21.2,17.6,86,29.79,5.0,NNW,9.2,-,0.00,,Overcast,330,2013-12-15 03:19:00
10:27 PM,21.2,17.6,86,29.79,5.0,NNW,11.5,-,0.00,,Overcast,330,2013-12-15 03:27:00
10:53 PM,21.9,17.1,82,29.82,10.0,NNW,11.5,-,0.00,,Overcast,330,2013-12-15 03:53:00
11:05 PM,21.2,17.6,86,29.80,10.0,NNW,12.7,-,N/A,,Overcast,330,2013-12-15 04:05:00
11:53 PM,23.0,18.0,81,29.83,5.0,NNW,10.4,-,0.00,,Haze,330,2013-12-15 04:53:00